Location: Ar Ranvel
(48.3000°N, 4.8833°W)
Time: 08:55:13
(UTC+00:00)

Cosmos 2360 Rocket - Pass Details

Date: 16 June 2021
Orbit: 835 x 843 km, 71.0° (Epoch: 04 August)

Event Time Altitude Azimuth Distance (km) Brightness Sun altitude
Rises 23:26:18 0° 242° (WSW) 3,387 5.2 -17.3°
Reaches altitude 10° 23:29:05 10° 254° (WSW) 2,454 4.6 -17.4°
Maximum altitude 23:33:54 28° 313° (NW) 1,516 4.1 -17.6°
Drops below altitude 10° 23:38:45 10° 12° (NNE) 2,461 5.7 -17.7°
Sets 23:41:33 0° 24° (NNE) 3,398 6.3 -17.8°
